Location: Newark
(46.7000°N, 60.6000°W)
Time: 12:42:29
(UTC+00:00)

Courier 1B - All Passes

Search period start: 31 October 2020 00:00
Search period end: 10 November 2020 00:00
Orbit: 963 x 1209 km, 28.3° (Epoch: 30 October)

Date Brightness Start Highest point End Pass type
(mag) Time Alt. Az. Time Alt. Az. Time Alt. Az.
31 Oct - 13:51:34 10° S 13:53:59 12° SSE 13:56:22 10° SE daylight
31 Oct - 15:43:16 10° SW 15:46:42 15° S 15:50:05 10° SSE daylight
31 Oct - 17:39:06 10° SSW 17:39:21 10° SSW 17:39:35 10° SSW daylight
01 Nov - 12:59:15 10° S 13:00:33 11° SSE 13:01:50 10° SSE daylight
01 Nov - 14:49:43 10° SSW 14:53:16 15° S 14:56:45 10° SE daylight
01 Nov - 16:43:40 10° SW 16:45:57 12° SSW 16:48:13 10° S daylight
02 Nov - 13:56:17 10° SSW 13:59:49 15° S 14:03:17 10° SE daylight
02 Nov - 15:49:29 10° SW 15:52:33 14° S 15:55:34 10° SSE daylight
03 Nov - 13:03:01 10° SSW 13:06:22 14° S 13:09:39 10° SE daylight
03 Nov - 14:55:35 10° SW 14:59:08 15° S 15:02:36 10° SSE daylight
04 Nov - 12:09:58 10° SSW 12:12:54 13° SSE 12:15:46 10° SE daylight
04 Nov - 14:01:49 10° SW 14:05:40 16° S 14:09:26 10° SSE daylight
04 Nov - 15:56:45 10° SSW 15:58:21 11° SSW 15:59:56 10° S daylight
05 Nov - 11:17:20 10° S 11:19:25 11° SSE 11:21:28 10° SSE daylight
05 Nov - 13:08:11 10° SSW 13:12:12 16° S 13:16:07 10° SE daylight
05 Nov - 15:02:03 10° SW 15:04:57 13° SSW 15:07:47 10° SSE daylight
06 Nov - 12:14:40 10° SSW 12:18:43 16° S 12:22:37 10° SE daylight
06 Nov - 14:07:52 10° SW 14:11:31 15° S 14:15:03 10° SSE daylight
07 Nov - 11:21:20 10° SSW 11:25:12 15° S 11:28:58 10° SE daylight
07 Nov - 13:13:55 10° SW 13:18:02 16° S 13:22:01 10° SSE daylight
08 Nov - 10:28:13 10° SSW 10:31:41 14° SSE 10:35:04 10° SE daylight
08 Nov - 12:20:07 10° SW 12:24:32 17° S 12:28:48 10° SE daylight
08 Nov - 14:14:39 10° SW 14:17:17 12° SSW 14:19:52 10° S daylight
09 Nov - 09:35:30 10° S 09:38:08 12° SSE 09:40:44 10° SE visible
09 Nov - 11:26:27 10° SW 11:31:00 17° S 11:35:24 10° SE daylight
09 Nov - 13:20:11 10° SW 13:23:50 15° SSW 13:27:23 10° SSE daylight
